[[{"header":{"parameterUnit":"m.s-1","parameterCategory":1,"la1":30.2991,"la2":30.254,"lo1":-89.0895,"lo2":-89.0444,"dy":0.0017,"dx":0.0017,"nx":28,"ny":28,"refTime":"2024-08-11T03:00:00:Z","depth":0,"parameterNumber":2,"parameterNumberName":"U-component_of_WINDS"},"data":[0,0,0,0,0,0,0,0,0,0,0,0,0,0,0,0,0,0,0,0,0,0,0,0,0,0,0,0,0,0,0,0,0,0,0,0,0,0,0,0,0,0,0,0,0,0,0,0,0,0,0,0,0,0,0,0,0,0,3.3417,3.3417,0,3.3445,3.3446,3.3446,3.3335,3.3332,3.3329,3.3326,3.3356,3.336,3.3363,0,0,0,0,0,0,0,0,0,0,0,0,0,3.3265,3.3269,3.3417,3.3417,3.3417,3.3445,3.3446,3.3446,3.3336,3.3332,3.3328,3.3324,3.3355,3.3359,3.3364,0,0,0,0,0,0,0,0,0,0,0,0,0,3.3316,3.327,3.3417,3.3366,3.3361,3.3445,3.3446,3.3446,3.3337,3.3332,3.3327,3.3322,3.3353,3.3359,3.3364,3.3499,0,0,3.3382,3.3385,0,0,0,0,0,0,0,0,3.3314,3.3322,3.3373,3.3369,3.3365,3.3382,3.3403,3.3464,3.3338,3.3346,3.3326,3.332,3.3369,3.3373,3.3389,3.35,3.3501,3.3383,3.3386,3.3389,3.339,0,0,0,0,0,0,0,3.331,3.332,3.3428,3.3374,3.3369,3.3341,3.3343,3.3414,3.3385,3.3345,3.3337,3.3342,3.3365,3.3384,3.3389,3.3502,3.3382,3.3388,3.3391,3.3393,3.3721,3.3726,0,0,0,0,0,0,3.3313,3.3318,3.3427,3.3429,3.3326,3.3348,3.335,3.3381,3.3384,3.3379,3.3346,3.3337,3.3376,3.3382,3.3389,3.3544,3.3389,3.3394,3.3397,3.3716,3.3722,3.3728,0,0,0,0,0,0,3.3311,3.3324,3.3426,3.3371,3.3382,3.3356,3.3392,3.3384,3.3402,3.3384,3.3378,3.337,3.3372,3.3381,3.3471,3.3543,3.3397,3.3402,3.371,3.3718,3.3725,3.3856,0,0,0,0,0,0,3.3307,3.3324,3.3375,3.3373,3.3385,3.3508,3.3396,3.3389,3.3413,3.3401,3.3405,3.3402,3.3369,3.3463,3.3477,3.3549,3.3406,3.3703,3.3713,3.3723,3.3845,3.3867,3.3886,0,0,0,0,0,3.3302,3.3411,3.3378,3.3392,3.3449,3.3512,3.3519,3.348,3.3419,3.3469,3.3458,3.3401,3.3534,3.3474,3.3488,3.3563,3.3698,3.371,3.3722,3.3835,3.3863,3.3886,0,0,0,0,0,0,3.3423,3.341,3.3373,3.3486,3.3501,3.3494,3.3556,3.351,3.3543,3.3531,3.3481,3.3483,3.3581,3.3581,3.3514,3.3691,3.3605,3.3621,3.3687,3.3713,3.3733,3.3729,3.3411,0,0,0,0,0,3.3462,3.3515,3.3502,3.3602,3.3612,3.3583,3.361,3.3578,3.3591,3.3597,3.3592,3.3608,3.3652,3.3683,3.3723,3.3845,3.3843,3.3903,3.3924,3.3941,3.3954,3.4015,3.4041,3.3767,3.3767,3.3766,0,0,3.3545,3.3545,3.3581,3.3626,3.3634,3.3689,3.3589,3.3653,3.3692,3.3607,3.3691,3.3688,3.3702,3.3808,3.3854,3.3811,3.403,3.3956,3.397,3.3973,3.403,3.4056,3.4079,3.3775,3.3773,3.3772,0,0,3.3723,3.3729,3.3812,3.3822,3.3835,3.3815,3.3835,3.3835,3.3829,3.3913,3.3849,3.3896,3.3975,3.3986,3.4003,3.4184,3.4133,3.4199,3.4306,3.4366,3.4388,3.4407,3.4468,3.4491,3.4213,3.4213,3.4213,0,3.3823,3.3904,3.386,3.3927,3.3948,3.3873,3.3955,3.3967,3.3994,3.4009,3.3961,3.4056,3.4061,3.4167,3.4211,3.4228,3.4247,3.4197,3.4388,3.4407,3.4424,3.4482,3.4506,3.4221,3.422,3.4219,3.4218,0,3.4025,3.4082,3.4148,3.4173,3.4202,3.4277,3.4244,3.4278,3.4244,3.4229,3.4313,3.4316,3.4354,3.4378,3.4346,3.4479,3.4451,3.4397,3.4309,3.4458,3.4512,3.4534,3.4232,3.4229,3.4227,3.4225,0,0,3.4279,3.4279,3.4303,3.4313,3.4322,3.4365,3.4436,3.4472,3.4501,3.4522,3.4579,3.4647,3.4595,3.4614,3.4583,3.4637,3.4776,3.4575,3.4574,3.4609,3.4919,3.4958,3.4985,3.4743,3.4747,3.4751,3.4917,0,3.4451,3.457,3.4533,3.4654,3.4704,3.4634,3.4695,3.4707,3.4695,3.4736,3.4722,3.477,3.4701,3.4711,3.4761,3.4749,3.4837,3.4736,3.4793,3.4796,3.4789,3.5013,3.5055,3.5212,3.4938,3.4942,3.4944,0,3.4667,3.4694,3.482,3.4818,3.4838,3.4894,3.4923,3.4964,3.4975,3.4962,3.4983,3.494,3.5008,3.4923,3.5015,3.4947,3.4969,3.4966,3.4971,3.4972,3.4877,3.5018,3.5261,3.5284,3.4978,3.4975,3.4972,0,3.4834,3.4904,3.4987,3.4998,3.4999,3.5039,3.5041,3.5048,3.5072,3.5098,3.5113,3.5148,3.5166,3.5193,3.516,3.5102,3.5257,3.5169,3.5246,3.5247,3.5279,3.5277,3.5527,3.5299,3.5299,3.5298,3.5298,0,3.5028,3.5107,3.5062,3.5113,3.5199,3.5155,3.5241,3.5235,3.5242,3.529,3.5232,3.5278,3.5234,3.5276,3.5251,3.5329,3.5339,3.5329,3.5321,3.5333,3.5333,3.5344,3.5331,3.5305,3.5303,3.5302,3.5301,0,3.5229,3.5203,3.5288,3.5281,3.5282,3.5345,3.5339,3.5385,3.5369,3.543,3.5442,3.5417,3.5463,3.5434,3.5482,3.5464,3.5566,3.5545,3.5562,3.5555,3.5632,3.5624,3.5895,3.5927,3.5681,3.5684,3.5686,0,3.5353,3.5411,3.5411,3.5438,3.5444,3.549,3.5514,3.5473,3.55,3.5517,3.5561,3.5602,3.5632,3.571,3.5695,3.5731,3.5707,3.58,3.5712,3.5721,3.5705,3.5701,3.5705,3.5817,3.582,3.5822,3.5824,0,3.5574,3.5558,3.5594,3.5625,3.5655,3.5678,3.5697,3.5723,3.5682,3.5715,3.5761,3.5785,3.5832,3.5873,3.5902,3.5904,3.5857,3.5852,3.5871,3.5882,3.5888,3.5882,3.5606,3.5845,3.5843,3.5841,3.584,3.5839,3.5738,3.5785,3.5792,3.5833,3.5843,3.5861,3.5903,3.5892,3.593,3.5965,3.5939,3.5993,3.6002,3.6036,3.6044,3.6085,3.6047,3.6076,3.6083,3.609,3.6099,3.5884,3.6091,3.609,3.609,3.6089,3.6089,0,3.5953,3.5953,3.5992,3.6019,3.6052,3.6005,3.6023,3.6053,3.6101,3.6113,3.6144,3.6196,3.6235,3.6224,3.6259,3.6294,3.6273,3.6304,3.6299,3.63,3.6132,3.6111,3.632,3.632,3.632,3.632,3.632,3.632,3.6068,3.6146,3.613,3.6211,3.6211,3.6263,3.6277,3.6293,3.6302,3.6362,3.6394,3.6387,3.6389,3.6423,3.6456,3.6452,3.6466,3.6505,3.6493,3.6335,3.6312,3.629,3.6269,3.6509,3.6509,3.6656,3.6658,3.6659]},{"header":{"parameterUnit":"m.s-1","parameterCategory":1,"la1":30.2991,"la2":30.254,"lo1":-89.0895,"lo2":-89.0444,"dy":0.0017,"dx":0.0017,"nx":28,"ny":28,"refTime":"2024-08-11T03:00:00:Z","depth":0,"parameterNumber":3,"parameterNumberName":"V-component_of_WINDS"},"data":[0,0,0,0,0,0,0,0,0,0,0,0,0,0,0,0,0,0,0,0,0,0,0,0,0,0,0,0,0,0,0,0,0,0,0,0,0,0,0,0,0,0,0,0,0,0,0,0,0,0,0,0,0,0,0,0,0,0,1.9267,1.9267,0,1.9277,1.9277,1.9277,1.9241,1.924,1.9239,1.9238,1.9249,1.925,1.9252,0,0,0,0,0,0,0,0,0,0,0,0,0,1.9216,1.9218,1.9267,1.9267,1.9267,1.9277,1.9277,1.9277,1.9242,1.924,1.9239,1.9238,1.9249,1.925,1.9252,0,0,0,0,0,0,0,0,0,0,0,0,0,1.9234,1.9218,1.9267,1.9251,1.9249,1.9277,1.9277,1.9277,1.9242,1.924,1.9239,1.9237,1.9248,1.925,1.9252,1.9296,0,0,1.9258,1.9259,0,0,0,0,0,0,0,0,1.9233,1.9236,1.9253,1.9252,1.925,1.9256,1.9263,1.9284,1.9242,1.9245,1.9238,1.9236,1.9253,1.9254,1.926,1.9297,1.9297,1.9258,1.9259,1.926,1.9261,0,0,0,0,0,0,0,1.9232,1.9235,1.9271,1.9253,1.9252,1.9243,1.9243,1.9267,1.9258,1.9244,1.9242,1.9243,1.9252,1.9258,1.926,1.9297,1.9258,1.926,1.9261,1.9262,1.9368,1.937,0,0,0,0,0,0,1.9233,1.9234,1.9271,1.9271,1.9237,1.9245,1.9245,1.9256,1.9257,1.9256,1.9245,1.9242,1.9255,1.9258,1.926,1.931,1.926,1.9262,1.9263,1.9367,1.9369,1.937,0,0,0,0,0,0,1.9232,1.9236,1.927,1.9252,1.9256,1.9247,1.9259,1.9257,1.9263,1.9258,1.9256,1.9253,1.9254,1.9257,1.9287,1.931,1.9263,1.9265,1.9365,1.9367,1.937,1.9411,0,0,0,0,0,0,1.923,1.9236,1.9253,1.9253,1.9257,1.9297,1.9261,1.9258,1.9266,1.9262,1.9265,1.9263,1.9253,1.9284,1.9289,1.9312,1.9266,1.9363,1.9366,1.9369,1.9408,1.9415,1.9421,0,0,0,0,0,1.9229,1.9265,1.9254,1.9259,1.9278,1.9299,1.9301,1.9288,1.9268,1.9285,1.9281,1.9263,1.9307,1.9287,1.9292,1.9316,1.9361,1.9365,1.9369,1.9405,1.9413,1.9421,0,0,0,0,0,0,1.9269,1.9265,1.9252,1.929,1.9295,1.9293,1.9313,1.9298,1.9309,1.9305,1.9289,1.929,1.9322,1.9322,1.9301,1.9358,1.933,1.9335,1.9356,1.9364,1.9371,1.9369,1.9268,0,0,0,0,0,1.9282,1.9299,1.9295,1.9328,1.9331,1.9322,1.9331,1.932,1.9325,1.9327,1.9325,1.933,1.9345,1.9355,1.9368,1.9408,1.9407,1.9426,1.9433,1.9438,1.9442,1.9461,1.9469,1.9383,1.9383,1.9383,0,0,1.931,1.931,1.9322,1.9336,1.9339,1.9356,1.9324,1.9345,1.9357,1.933,1.9357,1.9356,1.9361,1.9395,1.941,1.9396,1.9466,1.9443,1.9447,1.9449,1.9466,1.9474,1.9481,1.9385,1.9385,1.9384,0,0,1.9369,1.9371,1.9398,1.9401,1.9404,1.9398,1.9404,1.9404,1.9402,1.9429,1.9408,1.9423,1.9449,1.9452,1.9457,1.9516,1.9499,1.9521,1.9554,1.9573,1.958,1.9586,1.9605,1.9612,1.9525,1.9525,1.9525,0,1.9402,1.9428,1.9414,1.9435,1.9441,1.9417,1.9443,1.9447,1.9455,1.946,1.9444,1.9475,1.9476,1.951,1.9524,1.9529,1.9535,1.952,1.958,1.9586,1.9591,1.9609,1.9616,1.9527,1.9527,1.9527,1.9527,0,1.9468,1.9486,1.9508,1.9515,1.9524,1.9548,1.9536,1.9547,1.9536,1.953,1.9557,1.9558,1.957,1.9577,1.9567,1.9609,1.96,1.9583,1.9555,1.9602,1.9618,1.9625,1.9531,1.953,1.9529,1.9529,0,0,1.9553,1.9551,1.9559,1.9561,1.9563,1.9576,1.9598,1.9609,1.9618,1.9625,1.9642,1.9664,1.9647,1.9653,1.9642,1.9659,1.9703,1.9639,1.9639,1.9649,1.9747,1.9759,1.9767,1.9692,1.9693,1.9694,1.9746,0,1.9609,1.9647,1.9633,1.9671,1.9687,1.9663,1.9682,1.9685,1.968,1.9693,1.9688,1.9702,1.968,1.9683,1.9699,1.9694,1.9722,1.969,1.9707,1.9708,1.9705,1.9776,1.9789,1.9838,1.9752,1.9753,1.9754,0,1.968,1.9688,1.9727,1.9724,1.973,1.9747,1.9755,1.9767,1.977,1.9765,1.9771,1.9757,1.9777,1.975,1.9778,1.9757,1.9763,1.9762,1.9763,1.9763,1.9733,1.9776,1.9853,1.986,1.9765,1.9764,1.9763,0,1.9735,1.9756,1.9781,1.9784,1.9782,1.9794,1.9794,1.9794,1.9801,1.9808,1.9812,1.9822,1.9828,1.9835,1.9824,1.9805,1.9853,1.9825,1.9848,1.9849,1.9859,1.9858,1.9936,1.9865,1.9865,1.9865,1.9865,0,1.9799,1.9823,1.9806,1.9821,1.9847,1.9832,1.9858,1.9855,1.9856,1.987,1.9851,1.9864,1.9849,1.9861,1.9852,1.9875,1.9879,1.9875,1.9872,1.9875,1.9876,1.9878,1.9874,1.9867,1.9866,1.9866,1.9866,0,1.9865,1.9854,1.988,1.9875,1.9874,1.9894,1.9889,1.9903,1.9897,1.9915,1.9918,1.9908,1.9921,1.9911,1.9924,1.9918,1.9948,1.9942,1.9947,1.9945,1.9968,1.9965,2.0049,2.0059,1.9984,1.9984,1.9985,0,1.9905,1.9923,1.9919,1.9927,1.9927,1.994,1.9947,1.9932,1.9939,1.9942,1.9955,1.9967,1.9975,1.9997,1.999,2.0,1.9992,2.0021,1.9994,1.9996,1.9991,1.9989,1.999,2.0026,2.0027,2.0028,2.0028,0,1.9977,1.997,1.998,1.9987,1.9995,2.0,2.0004,2.0012,1.9996,2.0006,2.0018,2.0024,2.0037,2.0048,2.0055,2.0054,2.0038,2.0037,2.0043,2.0046,2.0048,2.0045,1.9961,2.0035,2.0034,2.0034,2.0033,2.0033,2.003,2.0044,2.0043,2.0054,2.0055,2.0058,2.007,2.0065,2.0075,2.0083,2.0074,2.0089,2.0089,2.0097,2.0099,2.011,2.0098,2.0106,2.0108,2.011,2.0113,2.0047,2.0111,2.0111,2.0111,2.0111,2.0111,0,2.0099,2.0097,2.0107,2.0112,2.012,2.0104,2.0107,2.0115,2.0128,2.013,2.0138,2.0151,2.0161,2.0156,2.0164,2.0174,2.0167,2.0177,2.0175,2.0175,2.0124,2.0117,2.0182,2.0182,2.0182,2.0182,2.0182,2.0182,2.0136,2.0158,2.0151,2.0173,2.017,2.0184,2.0187,2.019,2.0191,2.0206,2.0214,2.021,2.0209,2.0217,2.0225,2.0223,2.0226,2.0238,2.0234,2.0186,2.0179,2.0172,2.0166,2.024,2.024,2.0284,2.0284,2.0284]}]]